Retour au catalogue

STARLINK-37938

ActifCommunicationsSSO
NORAD 69568·PAYLOAD·🇺🇸 United States

Lancé Jun 15, 2026 depuis Vandenberg Space Force Base

Loading…

Prochains Passages (prochaines 24 heures)

TLE

FraisSource: CelesTrak SupGP

Époque: Sep 15, 2026, 03:11 UTC

1 69568C 26135Y   26258.13312500 -.00050357  00000+0 -15632-2 0  2587
2 69568  97.2837 285.9619 0001489  99.1271 201.8838 15.33463836    16

Suivez STARLINK-37938 en temps réel avec AllMySat

Download on the App Store